Météo par heure à Jugowice

Ce jour, 16 Juin, Mercredi

Heure Température Précipitation Vent Pression Humidité
00:00 +16°C° 0.1 mm 1 m/s 724 mmHg 90%
01:00 +15°C° 0 mm 1 m/s 724 mmHg 95%
02:00 +14°C° 0.1 mm 1 m/s 724 mmHg 96%
03:00 +14°C° 0.1 mm 1 m/s 724 mmHg 97%
04:00 +14°C° 0.1 mm 1 m/s 724 mmHg 98%
05:00 +15°C° 0 mm 1 m/s 724 mmHg 96%
06:00 +16°C° 0 mm 1 m/s 724 mmHg 94%
07:00 +18°C° 0 mm 1 m/s 725 mmHg 91%
08:00 +19°C° 0.1 mm 1 m/s 725 mmHg 86%
09:00 +21°C° 0.1 mm 1 m/s 725 mmHg 81%
10:00 +22°C° 0.1 mm 1 m/s 725 mmHg 75%
11:00 +23°C° 0.2 mm 1 m/s 725 mmHg 70%
12:00 +24°C° 0.2 mm 1 m/s 725 mmHg 65%
13:00 +25°C° 0 mm 1 m/s 725 mmHg 61%
14:00 +25°C° 0.3 mm 1 m/s 725 mmHg 61%
15:00 +25°C° 0.3 mm 1 m/s 725 mmHg 62%
16:00 +25°C° 0.3 mm 1 m/s 724 mmHg 62%
17:00 +24°C° 0.3 mm 1 m/s 724 mmHg 68%
18:00 +23°C° 0.3 mm 1 m/s 724 mmHg 74%
19:00 +22°C° 0.3 mm 1 m/s 724 mmHg 80%
20:00 +21°C° 0 mm 1 m/s 724 mmHg 82%
21:00 +19°C° 0 mm 1 m/s 724 mmHg 85%
22:00 +18°C° 0 mm 1 m/s 724 mmHg 88%
23:00 +18°C° 0 mm 1 m/s 724 mmHg 88%

Demain, 17 Juin, Jeudi

Heure Température Précipitation Vent Pression Humidité
00:00 +16°C° 0 mm 1 m/s 724 mmHg 89%
01:00 +16°C° 0 mm 1 m/s 724 mmHg 89%
02:00 +16°C° 0 mm 1 m/s 724 mmHg 89%
03:00 +16°C° 0 mm 1 m/s 724 mmHg 88%
04:00 +15°C° 0 mm 1 m/s 724 mmHg 87%
05:00 +18°C° 0 mm 1 m/s 724 mmHg 83%
06:00 +20°C° 0 mm 1 m/s 724 mmHg 78%
07:00 +22°C° 0 mm 1 m/s 725 mmHg 73%
08:00 +23°C° 0 mm 2 m/s 725 mmHg 67%
09:00 +25°C° 0 mm 2 m/s 725 mmHg 60%
10:00 +26°C° 0 mm 3 m/s 725 mmHg 54%
11:00 +27°C° 0 mm 3 m/s 725 mmHg 52%
12:00 +27°C° 0 mm 3 m/s 725 mmHg 51%
13:00 +28°C° 0 mm 4 m/s 725 mmHg 49%
14:00 +28°C° 0 mm 3 m/s 725 mmHg 50%
15:00 +28°C° 0 mm 3 m/s 725 mmHg 51%
16:00 +28°C° 0 mm 2 m/s 725 mmHg 52%
17:00 +26°C° 0 mm 2 m/s 725 mmHg 59%
18:00 +25°C° 0 mm 2 m/s 725 mmHg 66%
19:00 +24°C° 0 mm 2 m/s 724 mmHg 73%
20:00 +23°C° 0 mm 2 m/s 725 mmHg 75%
21:00 +20°C° 0 mm 2 m/s 725 mmHg 77%
22:00 +20°C° 0 mm 1 m/s 725 mmHg 79%
23:00 +19°C° 0 mm 1 m/s 724 mmHg 80%

Après-demain, 18 Juin, Vendredi

Heure Température Précipitation Vent Pression Humidité
00:00 +19°C° 0 mm 1 m/s 724 mmHg 82%
01:00 +18°C° 0 mm 1 m/s 724 mmHg 84%
02:00 +18°C° 0 mm 1 m/s 724 mmHg 84%
03:00 +18°C° 0 mm 1 m/s 724 mmHg 84%
04:00 +18°C° 0 mm 1 m/s 724 mmHg 84%
05:00 +20°C° 0 mm 1 m/s 724 mmHg 78%
06:00 +22°C° 0 mm 1 m/s 724 mmHg 72%
07:00 +24°C° 0 mm 1 m/s 725 mmHg 66%
08:00 +25°C° 0 mm 2 m/s 725 mmHg 62%
09:00 +26°C° 0 mm 2 m/s 725 mmHg 58%
10:00 +28°C° 0 mm 3 m/s 725 mmHg 53%
11:00 +28°C° 0 mm 3 m/s 724 mmHg 51%
12:00 +29°C° 0 mm 3 m/s 724 mmHg 49%
13:00 +29°C° 0 mm 3 m/s 724 mmHg 47%
14:00 +29°C° 0 mm 3 m/s 724 mmHg 48%
15:00 +29°C° 0 mm 3 m/s 724 mmHg 50%
16:00 +29°C° 0 mm 3 m/s 724 mmHg 51%
17:00 +27°C° 0 mm 3 m/s 724 mmHg 58%
18:00 +26°C° 0 mm 2 m/s 723 mmHg 64%
19:00 +25°C° 0 mm 1 m/s 723 mmHg 71%
20:00 +23°C° 0 mm 1 m/s 723 mmHg 72%
21:00 +22°C° 0 mm 1 m/s 723 mmHg 73%
22:00 +20°C° 0 mm 1 m/s 723 mmHg 74%
23:00 +20°C° 0 mm 1 m/s 723 mmHg 75%

19 Juin, Samedi

Heure Température Précipitation Vent Pression Humidité
00:00 +20°C° 0 mm 1 m/s 723 mmHg 76%
01:00 +19°C° 0 mm 1 m/s 723 mmHg 76%
02:00 +19°C° 0 mm 1 m/s 723 mmHg 77%
03:00 +19°C° 0 mm 1 m/s 723 mmHg 77%
04:00 +19°C° 0 mm 1 m/s 723 mmHg 77%
05:00 +21°C° 0 mm 1 m/s 723 mmHg 73%
06:00 +23°C° 0 mm 1 m/s 723 mmHg 68%
07:00 +25°C° 0 mm 2 m/s 724 mmHg 64%
08:00 +26°C° 0 mm 2 m/s 724 mmHg 59%
09:00 +27°C° 0 mm 2 m/s 724 mmHg 53%
10:00 +29°C° 0 mm 2 m/s 724 mmHg 47%
11:00 +29°C° 0 mm 2 m/s 724 mmHg 45%
12:00 +30°C° 0 mm 2 m/s 724 mmHg 44%
13:00 +31°C° 0 mm 2 m/s 723 mmHg 42%
14:00 +31°C° 0 mm 1 m/s 723 mmHg 43%
15:00 +31°C° 0 mm 1 m/s 723 mmHg 43%
16:00 +31°C° 0 mm 1 m/s 723 mmHg 44%
17:00 +29°C° 0 mm 1 m/s 723 mmHg 51%
18:00 +28°C° 0 mm 1 m/s 723 mmHg 59%
19:00 +26°C° 0 mm 1 m/s 722 mmHg 67%
20:00 +25°C° 0.1 mm 1 m/s 722 mmHg 70%
21:00 +23°C° 0.1 mm 1 m/s 722 mmHg 73%
22:00 +22°C° 0.1 mm 1 m/s 722 mmHg 76%
23:00 +21°C° 0.2 mm 1 m/s 722 mmHg 80%

20 Juin, Dimanche

Heure Température Précipitation Vent Pression Humidité
00:00 +21°C° 0.2 mm 1 m/s 722 mmHg 85%
01:00 +20°C° 0.2 mm 1 m/s 722 mmHg 89%
02:00 +20°C° 0 mm 1 m/s 722 mmHg 89%
03:00 +20°C° 0 mm 1 m/s 722 mmHg 89%
04:00 +18°C° 0 mm 0 m/s 722 mmHg 88%
05:00 +21°C° 0 mm 1 m/s 722 mmHg 84%
06:00 +23°C° 0 mm 1 m/s 722 mmHg 79%
07:00 +24°C° 0 mm 1 m/s 722 mmHg 74%
08:00 +26°C° 0 mm 1 m/s 722 mmHg 69%
09:00 +27°C° 0 mm 1 m/s 722 mmHg 64%
10:00 +28°C° 0 mm 1 m/s 722 mmHg 59%
11:00 +29°C° 0.1 mm 2 m/s 722 mmHg 55%
12:00 +30°C° 0.1 mm 2 m/s 722 mmHg 52%
13:00 +31°C° 0.1 mm 2 m/s 722 mmHg 48%
14:00 +31°C° 0.1 mm 3 m/s 721 mmHg 50%
15:00 +30°C° 0.1 mm 3 m/s 721 mmHg 51%
16:00 +30°C° 0.1 mm 3 m/s 721 mmHg 53%
17:00 +29°C° 0 mm 3 m/s 720 mmHg 60%
18:00 +28°C° 0 mm 2 m/s 720 mmHg 66%
19:00 +26°C° 0 mm 2 m/s 720 mmHg 72%
20:00 +25°C° 0 mm 2 m/s 720 mmHg 75%
21:00 +23°C° 0 mm 2 m/s 719 mmHg 77%
22:00 +21°C° 0 mm 2 m/s 719 mmHg 80%
23:00 +21°C° 0 mm 2 m/s 719 mmHg 80%

21 Juin, Lundi

Heure Température Précipitation Vent Pression Humidité
00:00 +20°C° 0 mm 2 m/s 719 mmHg 80%
01:00 +21°C° 0 mm 1 m/s 719 mmHg 80%
02:00 +21°C° 0 mm 1 m/s 719 mmHg 80%
03:00 +21°C° 0 mm 1 m/s 719 mmHg 80%
04:00 +20°C° 0 mm 2 m/s 719 mmHg 81%
05:00 +21°C° 0 mm 2 m/s 719 mmHg 77%
06:00 +24°C° 0 mm 2 m/s 719 mmHg 72%
07:00 +25°C° 0 mm 3 m/s 719 mmHg 68%
08:00 +27°C° 0 mm 3 m/s 719 mmHg 65%
09:00 +28°C° 0 mm 3 m/s 719 mmHg 61%
10:00 +29°C° 0 mm 3 m/s 720 mmHg 58%
11:00 +29°C° 0 mm 3 m/s 719 mmHg 57%
12:00 +30°C° 0 mm 3 m/s 719 mmHg 56%
13:00 +30°C° 0 mm 3 m/s 719 mmHg 55%
14:00 +30°C° 0.2 mm 3 m/s 719 mmHg 57%
15:00 +29°C° 0.2 mm 3 m/s 719 mmHg 59%
16:00 +29°C° 0.2 mm 2 m/s 719 mmHg 61%
17:00 +28°C° 0.2 mm 2 m/s 719 mmHg 66%
18:00 +27°C° 0.2 mm 2 m/s 719 mmHg 72%
19:00 +26°C° 0.2 mm 1 m/s 719 mmHg 77%
20:00 +25°C° 0.2 mm 1 m/s 719 mmHg 80%
21:00 +23°C° 0.2 mm 1 m/s 719 mmHg 83%
22:00 +20°C° 0.2 mm 0 m/s 719 mmHg 86%
23:00 +22°C° 0 mm 1 m/s 718 mmHg 86%
Voir plus

Nous avons besoin de votre consentement

Meteoprog et ses fournisseurs de services peuvent stocker et accéder à des données personnelles telles que des cookies, des identifiants d'appareils ou d'autres technologies similaires sur votre appareil et traiter ces données pour personnaliser le contenu et les publicités, ainsi que pour fournir des fonctionnalités de médias sociaux et analyser le trafic.

  • Stocker et/ou accéder à des informations sur votre appareil

    Des cookies, des identifiants d'appareils ou d'autres informations peuvent être stockés ou accessibles sur votre appareil aux fins indiquées ci-dessus.

  • Annonces et contenus personnalisés, mesure des annonces et des contenus, connaissance de l'audience et développement de produits

    Les annonces et le contenu peuvent être personnalisés en fonction d'un profil. D'autres données peuvent être ajoutées pour mieux personnaliser les annonces et le contenu. Les performances des publicités et du contenu peuvent être mesurées. Il est possible d'obtenir des informations sur le public qui a vu les publicités et le contenu. Ces données peuvent être utilisées pour développer ou améliorer l'expérience de l'utilisateur, les systèmes et les logiciels.

En cliquant sur "J'accepte", vous autorisez l'utilisation de cookies, des identifiants d'appareils, des balises web ou d'autres technologies similaires. Vos paramètres peuvent être modifiés dans le navigateur de votre appareil.

Dans certains cas, des intérêts légitimes peuvent être invoqués plutôt qu'un consentement. Vous pouvez en savoir plus à ce sujet dans notre Politique de confidentialité et de cookies.